Portada
METAR-TAF:

METAR-TAF

Aeroports :

Roben-Hood Airport

Big Rapids, Michigan, Estats Units d'Amèrica

latitud: 43-43-21N, longitud: 085-30-15W, altitud: 302 m

Observació

L'informe es va fer fa 8 minuts, a les 15:36 UTC
Vent calma
Temperatura 6°C
Humitat 75%
Pressió 1018 hPa
Visibilitat: 16.1 km
Cel ennuvolat a una alçada de 1400 ft
Cel cobert a una alçada de 6000 ft

METAR: KRQB 011536Z AUTO 00000KT 10SM BKN014 OVC060 06/02 A3006 RMK

Hora: 11:44 (15:44 UTC)


TAF: manca

Observacions i pronòstics meteorològics de més de 4000 aeroports (METAR i TAF).

Les estacions disponibles són els punts grocs i vermells al mapa.

Posi el ratolí al punt desitjat per veure el nom de l'estació.

Feu clic per veure les observacions i els pronòstics meteorològics.

Per canviar el mapa: feu clic els botons verds amb una creu de color negre per apropar; al botó verd amb un guió per allunyar la imatge; o en les fletxes verdes per a mapes adjacents.


METAR-TAF: